Weather History for KEQY - February, 2012

Change the Weather History Date:

Monday, February 6, 2012

  Actual Average (KCLT) Record (KCLT)
Temperature  
Mean Temperature 40 °F 42 °F  
Max Temperature 44 °F 53 °F 79 °F (1927)
Min Temperature 37 °F 31 °F 13 °F (1977)
Degree Days  
Heating Degree Days 24 23  
Month to date heating degree days 139  
Since 1 July heating degree days 2246  
Cooling Degree Days 0 0  
Month to date cooling degree days 0  
Year to date cooling degree days 0  
Moisture  
Dew Point 34 °F    
Average Humidity 80    
Maximum Humidity 93    
Minimum Humidity 65    
Precipitation  
Precipitation 0.00 in 0.10 in 2.91 in (1955)
Month to date precipitation 0.66  
Year to date precipitation 4.07  
Snow  
Snow 0.00 in 0.00 in 5.90 in (1984)
Month to date snowfall 0.3  
Since 1 July snowfall 2.8  
Snow Depth -    
Sea Level Pressure  
Sea Level Pressure 30.25 in    
Wind  
Wind Speed 5 mph (NNE)    
Max Wind Speed 9 mph    
Max Gust Speed -    
Visibility 10 miles    
Events      
T = Trace of Precipitation, MM = Missing Value Source: NWS Daily Summary

Daily Weather History Graph

Daily Weather History Graph

Search for Another Location

Airport or City:

Trip Planner

Search our weather history database for the weather conditions in past years. The results will help you decide how hot, cold, wet, or windy it might be!

Date:

Astronomy

Feb. 06, 2012 Rise Set
Actual Time 7:17 AM EST 5:55 PM EST
Civil Twilight 6:51 AM EST 6:22 PM EST
Nautical Twilight 6:21 AM EST 6:52 PM EST
Astronomical Twilight 5:51 AM EST 7:21 PM EST
Moon 4:58 PM EST (2/6) 6:07 AM EST (2/6)
Length of Visible Light 11h 30m
Length of Day
10h 38m
Waxing Gibbous, 98% of the Moon is Illuminated
Feb 6
Waxing Gibbous
Feb 7
Full
Feb 14
Last Quarter
Feb 21
New
Feb 29
First Quarter

Hourly Weather History & Observations

Time (EST) Temp. Windchill Dew Point Humidity Pressure Visibility Wind Dir Wind Speed Gust Speed Precip Events Conditions
12:53 AM 39.9 °F 34.5 °F 36.0 °F 86% 30.27 in 10.0 mi NE 8.1 mph - N/A   Overcast
1:53 AM 39.0 °F 33.4 °F 36.0 °F 89% 30.27 in 10.0 mi ENE 8.1 mph - N/A   Overcast
2:00 AM 39.2 °F 35.0 °F 35.6 °F 87% 30.22 in 10.0 mi NE 5.8 mph - N/A   Overcast
2:20 AM 39.2 °F 35.9 °F 35.6 °F 87% 30.22 in 10.0 mi ENE 4.6 mph - N/A   Overcast
2:41 AM 37.4 °F - 35.6 °F 93% 30.24 in 9.0 mi Calm Calm - N/A   Mostly Cloudy
2:53 AM 37.9 °F 34.4 °F 36.0 °F 93% 30.29 in 10.0 mi North 4.6 mph - N/A   Mostly Cloudy
3:53 AM 37.9 °F 32.7 °F 35.1 °F 89% 30.28 in 10.0 mi NE 6.9 mph - N/A   Overcast
4:53 AM 37.9 °F 31.5 °F 35.1 °F 89% 30.28 in 10.0 mi NE 9.2 mph - N/A   Overcast
5:53 AM 37.9 °F 33.5 °F 34.0 °F 86% 30.30 in 10.0 mi NE 5.8 mph - N/A   Overcast
6:53 AM 37.9 °F 32.1 °F 35.1 °F 89% 30.31 in 10.0 mi NE 8.1 mph - N/A   Overcast
7:53 AM 37.9 °F 32.1 °F 35.1 °F 89% 30.32 in 9.0 mi NE 8.1 mph - N/A   Overcast
8:53 AM 37.9 °F 32.1 °F 34.0 °F 86% 30.32 in 9.0 mi NE 8.1 mph - N/A   Overcast
9:53 AM 39.9 °F 35.8 °F 34.0 °F 79% 30.33 in 10.0 mi ENE 5.8 mph - N/A   Overcast
10:53 AM 39.9 °F 35.8 °F 32.0 °F 73% 30.33 in 10.0 mi NE 5.8 mph - N/A   Overcast
11:53 AM 41.0 °F 38.0 °F 32.0 °F 70% 30.31 in 10.0 mi NNE 4.6 mph - N/A   Overcast
12:53 PM 42.1 °F 39.2 °F 32.0 °F 67% 30.28 in 10.0 mi NE 4.6 mph - N/A   Overcast
1:53 PM 43.0 °F 40.3 °F 33.1 °F 68% 30.25 in 10.0 mi North 4.6 mph - N/A   Overcast
2:12 PM 42.8 °F - 33.8 °F 70% 30.20 in 10.0 mi Calm Calm - N/A   Overcast
2:53 PM 43.0 °F - 33.1 °F 68% 30.24 in 10.0 mi Calm Calm - N/A   Overcast
3:53 PM 44.1 °F 42.5 °F 33.1 °F 65% 30.23 in 10.0 mi NNE 3.5 mph - N/A   Overcast
4:53 PM 44.1 °F - 33.1 °F 65% 30.21 in 10.0 mi Calm Calm - N/A   Overcast
5:53 PM 44.1 °F - 34.0 °F 68% 30.20 in 10.0 mi Calm Calm - N/A   Overcast
6:53 PM 43.0 °F 41.3 °F 35.1 °F 74% 30.20 in 10.0 mi South 3.5 mph - N/A   Overcast
7:53 PM 43.0 °F 40.3 °F 36.0 °F 76% 30.20 in 10.0 mi SW 4.6 mph - N/A   Overcast
8:51 PM 41.0 °F 39.0 °F 35.6 °F 81% 30.15 in 10.0 mi West 3.5 mph - N/A   Scattered Clouds
8:53 PM 41.0 °F 38.0 °F 35.1 °F 79% 30.21 in 10.0 mi West 4.6 mph - N/A   Partly Cloudy
9:53 PM 39.9 °F 37.8 °F 35.1 °F 83% 30.21 in 10.0 mi WNW 3.5 mph - N/A   Clear
10:53 PM 39.0 °F - 35.1 °F 86% 30.21 in 10.0 mi Calm Calm - N/A   Clear
11:53 PM 37.9 °F 35.5 °F 35.1 °F 89% 30.20 in 9.0 mi West 3.5 mph - N/A   Clear